Tracking 19638 objects as of 20-Apr-2019
HD Live streaming from Space Station
objects crossing your sky now

THORAD AGENA D DEB

Track THORAD AGENA D DEB now!
10-day predictions


NORAD ID: 5842
Int'l Code: 1970-025ML
Perigee: 682.4 km
Apogee: 734.6 km
Inclination: 100.0 °
Period: 98.8 minutes
Semi major axis: 7079 km
RCS: 0.026 m2 (small)
Launch date: April 8, 1970
Source: United States (US)
Launch site: AIR FORCE WESTERN TEST RANGE (AFWTR)

Note: This is SATELLITE DEBRIS
aabbcc
Your satellite tracking list
Your tracking list is empty




NASA's NSSDC Master Catalog

Two Line Element Set (TLE):
1  5842U 70025ML  19109.89634632  .00000988  00000-0  22981-3 0  9994
2  5842 100.0116  98.4463 0036896   8.1746 352.0040 14.57470369517432
Source of the keplerian elements: AFSPC